{"data":{"norad_id":25967,"epoch":"2026-09-19T15:09:09.281952Z","epoch_age_seconds":87121,"freshness":"FRESH","line1":"1 25967U 99063A   26262.63135743 -.00000188  00000+0  00000+0 0  9992","line2":"2 25967   9.9261  26.6956 0004210 194.8799 341.3336  1.00275501 98298","mean_motion":1.00275501,"eccentricity":0.000421,"inclination_deg":9.9261,"raan_deg":26.6956,"arg_perigee_deg":194.8799,"mean_anomaly_deg":341.3336,"bstar":0,"rev_number":9829,"period_min":1436.0436852866,"perigee_km":35767.802350065,"apogee_km":35803.304177267,"semimajor_km":42163.690263666,"source":"CELESTRAK","updated_at":"2026-09-20T09:00:35.117245Z"}}